Weather History for KSIY - October, 2013

Change the Weather History Date:

Tuesday, October 8, 2013

  Actual Average Record
Temperature  
Mean Temperature 45 °F 55 °F  
Max Temperature 59 °F 73 °F 90 °F (1996)
Min Temperature 31 °F 37 °F 27 °F (1949)
Degree Days  
Heating Degree Days 20 10  
Month to date heating degree days 117 73  
Since 1 July heating degree days 264 215  
Cooling Degree Days 0 0  
Month to date cooling degree days 0 0  
Year to date cooling degree days 776 542  
Moisture  
Dew Point 33 °F    
Average Humidity 65    
Maximum Humidity 89    
Minimum Humidity 39    
Precipitation  
Precipitation T in 0.02 in 1.42 in (1996)
Month to date precipitation T 0.12  
Year to date precipitation 5.07 11.76  
Sea Level Pressure  
Sea Level Pressure 30.08 in    
Wind  
Wind Speed 7 mph (North)    
Max Wind Speed 23 mph    
Max Gust Speed 29 mph    
Visibility 10 miles    
Events      
T = Trace of Precipitation, MM = Missing Value Source: NWS Daily Summary

Daily Weather History Graph

Daily Weather History Graph

Search for Another Location

Airport or City:

Trip Planner

Search our weather history database for the weather conditions in past years. The results will help you decide how hot, cold, wet, or windy it might be!

Date:

Astronomy

Oct. 08, 2013 Rise Set
Actual Time 7:14 AM PDT 6:39 PM PDT
Civil Twilight 6:46 AM PDT 7:07 PM PDT
Nautical Twilight 6:14 AM PDT 7:39 PM PDT
Astronomical Twilight 5:42 AM PDT 8:11 PM PDT
Moon 11:17 AM PDT (10/8) 9:17 PM PDT (10/8)
Length of Visible Light 12h 20m
Length of Day
11h 24m
Waxing Crescent, 17% of the Moon is Illuminated
Oct 8
Waxing Crescent
Oct 11
First Quarter
Oct 18
Full
Oct 26
Last Quarter
Nov 3
New

Hourly Weather History & Observations

Time (PDT) Temp. Windchill Dew Point Humidity Pressure Visibility Wind Dir Wind Speed Gust Speed Precip Events Conditions
12:53 AM 39.9 °F 35.1 °F 33.1 °F 77% 30.16 in 10.0 mi North 6.9 mph - N/A   Clear
1:53 AM 37.0 °F - 32.0 °F 82% 30.16 in 10.0 mi Calm Calm - N/A   Clear
2:53 AM 35.1 °F 32.2 °F 30.0 °F 82% 30.16 in 10.0 mi ESE 3.5 mph - N/A   Clear
3:53 AM 33.1 °F - 28.9 °F 85% 30.17 in 10.0 mi Calm Calm - N/A   Clear
4:53 AM 33.1 °F - 28.9 °F 85% 30.17 in 10.0 mi Calm Calm - N/A   Clear
5:53 AM 33.1 °F 26.1 °F 28.9 °F 85% 30.18 in 10.0 mi SSW 8.1 mph - N/A   Clear
6:53 AM 32.0 °F 27.5 °F 28.0 °F 85% 30.19 in 10.0 mi SW 4.6 mph - N/A   Partly Cloudy
7:53 AM 36.0 °F - 32.0 °F 86% 30.18 in 10.0 mi Calm Calm - N/A   Mostly Cloudy
8:53 AM 36.0 °F 32.1 °F 30.9 °F 82% 30.19 in 10.0 mi SW 4.6 mph - N/A   Clear
9:53 AM 44.1 °F - 35.1 °F 71% 30.18 in 10.0 mi Calm Calm - N/A   Clear
10:53 AM 48.9 °F - 36.0 °F 61% 30.15 in 10.0 mi WNW 3.5 mph - N/A   Clear
11:53 AM 54.0 °F - 35.1 °F 49% 30.13 in 10.0 mi NNW 5.8 mph - N/A   Clear
12:53 PM 55.0 °F - 34.0 °F 45% 30.09 in 10.0 mi NNE 5.8 mph - N/A   Clear
1:53 PM 57.9 °F - 32.0 °F 37% 30.04 in 10.0 mi North 9.2 mph - N/A   Clear
2:53 PM 57.9 °F - 33.1 °F 39% 30.02 in 10.0 mi North 9.2 mph - N/A   Clear
3:53 PM 57.0 °F - 33.1 °F 40% 30.01 in 10.0 mi NNE 13.8 mph - N/A   Clear
4:53 PM 54.0 °F - 33.1 °F 45% 30.01 in 10.0 mi North 17.3 mph - N/A   Clear
5:53 PM 52.0 °F - 34.0 °F 50% 30.01 in 10.0 mi NE 5.8 mph - N/A   Mostly Cloudy
6:53 PM 51.1 °F - 35.1 °F 54% 30.01 in 10.0 mi NNE 13.8 mph - N/A   Overcast
7:53 PM 48.0 °F - 35.1 °F 61% 29.99 in 10.0 mi North 12.7 mph - N/A   Partly Cloudy
8:53 PM 48.0 °F - 36.0 °F 63% 29.98 in 10.0 mi North 10.4 mph - N/A   Clear
9:53 PM 48.9 °F - 36.0 °F 61% 29.96 in 10.0 mi North 11.5 mph - N/A   Mostly Cloudy
10:53 PM 46.9 °F - 37.0 °F 68% 29.95 in 10.0 mi NNW 10.4 mph - N/A   Overcast
11:53 PM 46.9 °F - 36.0 °F 66% 29.94 in 10.0 mi NNW 8.1 mph - N/A   Overcast